Voltar ao catálogo

ELECTRON KICK STAGE R/B

AtivoSSO
NORAD 60085·ROCKET BODY·🇺🇸 United States

Lançado Jun 20, 2024 de Rocket Lab Launch Complex 1

Loading…

Próximas Passagens (próximas 24 horas)

TLE

AtualizadoSource: Space-Track

Época: Sep 14, 2026, 02:51 UTC

1 60085U 24114G   26257.11876579  .00007372  00000-0  37676-3 0  9998
2 60085  97.9289 314.8288 0063314 153.7463 206.7001 15.15228444122855

Acompanhe ELECTRON KICK STAGE R/B em tempo real com AllMySat

Download on the App Store